Location: Spaichingen
(48.0400°N, 8.4300°E)
Time: 21:41:17
(UTC+02:00)

Tiangong 2 - Pass Details

Date: 24 May 2019
Orbit: 376 x 388 km, 42.8° (Epoch: 24 June)

Event Time Altitude Azimuth Distance (km) Brightness Sun altitude
Rises 22:09:54 0° 253° (WSW) 2,233 5.3 -8.7°
Reaches altitude 10° 22:12:05 10° 242° (WSW) 1,381 4.1 -9.0°
Maximum altitude 22:14:53 30° 179° (S) 697 2.0 -9.3°
Enters shadow 22:17:07 14° 120° (ESE) 1,182 2.9 -9.5°
